Regional Weather Roundup
Issued by NWS Glasgow, MT

Home | Current Version | Previous Version | Text Only | Print | Product List | Glossary On
Versions: 1 2 3 4 5 6 7 8 9 10 11 12 13 14 15 16 17 18 19 20 21 22 23 24 25 26 27 28 29 30 31 32 33 34 35 36 37 38 39 40 41 42 43 44 45 46 47 48 49 50
000
ASUS45 KGGW 020015
RWRGGW
HOURLY WEATHER ROUNDUP FOR NORTHEAST MONTANA
NATIONAL WEATHER SERVICE GLASGOW MONTANA
500 PM MST SUN FEB 01 2015

NOTE: "FAIR" INDICATES FEW OR NO CLOUDS BELOW 12,000 FEET WITH NO
SIGNIFICANT WEATHER AND/OR OBSTRUCTIONS TO VISISBILITY.

NORTHEAST MONTANA


CITY           SKY/WX    TMP DP  RH WIND       PRES   REMARKS
GLASGOW        CLEAR     10   3  73 SE14      30.07F WCI  -6
6HR MIN TEMP:   2; 6HR MAX TEMP:  10;

PLENTYWOOD       N/A      6   0  76 S12         N/A  WCI  -9
WOLF POINT     CLEAR     13   4  67 CALM      30.15F
JORDAN           N/A     12   6  77 SE5       30.05F
WINNETT          N/A     26  18  71 S12G20      N/A
SIDNEY         CLEAR      5 -18  33 S6        30.22F
GLENDIVE       CLEAR      9   1  72 CALM      30.16F
SCOBEY           N/A      7  -4  60 S6        30.06F

FORT PECK REPORTS


CITY           SKY/WX    TMP DP  RH WIND       PRES   REMARKS
FORT PECK        N/A     13   8  81 SE13        N/A  WCI  -2
THE PINES        N/A     14   9  80 S8G16       N/A

SOUTHEAST MONTANA


CITY           SKY/WX    TMP DP  RH WIND       PRES   REMARKS
BILLINGS       CLOUDY    20  13  74 NE3       30.01F
MILES CITY     CLEAR     15   7  70 SE9       30.10F
BAKER          CLEAR      9   2  73 S5        30.14F
LIVINGSTON     CLOUDY    37  22  54 SW26G32   29.94F

CENTRAL MONTANA


CITY           SKY/WX    TMP DP  RH WIND       PRES   REMARKS
HAVRE          PTCLDY     7   2  80 E6        29.97F
LEWISTOWN      CLOUDY    29  17  61 CALM      29.88F
GREAT FALLS    CLOUDY    31  22  69 SW18      29.87F
CUT BANK       CLOUDY    18  14  84 SE6       29.86F
HELENA         CLOUDY    25  16  68 NW5       29.99F
BUTTE          CLOUDY    30  24  78 NW3       29.95F
BOZEMAN        CLOUDY    27  18  69 SW3       29.99F

WESTERN MONTANA


CITY           SKY/WX    TMP DP  RH WIND       PRES   REMARKS
MISSOULA       CLOUDY    28  24  85 NW3       30.02F
KALISPELL      NOT AVBL

NORTH DAKOTA


CITY           SKY/WX    TMP DP  RH WIND       PRES   REMARKS
WILLISTON      CLEAR      7  -3  64 S7        30.21F
DICKINSON      CLEAR      1  -6  72 S8        30.17F
MINOT          CLEAR      2 -10  57 S6        30.26F
BISMARCK       CLEAR      2 -13  49 CALM      30.34F

SOUTHERN SASKATCHEWAN


CITY           SKY/WX    TMP DP  RH WIND       PRES   REMARKS
REGINA         MOCLDY     1  -2  85 SE9       30.10F
MOOSE JAW      MOCLDY    10   3  72 S8        30.08F
ESTEVAN        PTCLDY     5  -4  66 S10       30.17F WCI -10
SWIFT CURRENT  PTCLDY     9   5  85 S15       29.94F WCI  -8



USA.gov is the U.S. government's official web portal to all federal, state and local government web resources and services.